| time (UTC) | temp C | wind direction | speed KPH | gust KPH | rain 1hr cm | rain 24hr cm | rain mn cm | humidity % | barometer mb |
| 20260507074104 | 11 | 77 | 8.0 | 24.1 | 0.00 | 0.00 | 0.00 | 81 | 1015.1 |
| 20260507073604 | 11 | 34 | 11.3 | 27.4 | 0.00 | 0.00 | 0.00 | 81 | 1015.1 |
| 20260507073104 | 11 | 57 | 9.7 | 22.5 | 0.00 | 0.00 | 0.00 | 82 | 1015.2 |
| 20260507072604 | 11 | 46 | 8.0 | 22.5 | 0.00 | 0.00 | 0.00 | 83 | 1015.1 |
| 20260507071604 | 10 | 53 | 8.0 | 22.5 | 0.00 | 0.00 | 0.00 | 84 | 1015.2 |
| 20260507071104 | 10 | 49 | 8.0 | 16.1 | 0.00 | 0.00 | 0.00 | 84 | 1015.0 |
| 20260507070604 | 10 | 28 | 4.8 | 14.5 | 0.00 | 0.00 | 0.00 | 84 | 1015.1 |
| 20260507070104 | 10 | 71 | 8.0 | 27.4 | 0.00 | 0.00 | 0.00 | 84 | 1015.1 |
| 20260507065604 | 10 | 50 | 9.7 | 20.9 | 0.00 | 0.00 | 0.00 | 85 | 1015.1 |
| 20260507064604 | 10 | 18 | 8.0 | 25.7 | 0.00 | 0.00 | 0.00 | 85 | 1015.0 |
| 20260507063604 | 10 | 74 | 4.8 | 19.3 | 0.00 | 0.00 | 0.00 | 86 | 1014.9 |
| 20260507062603 | 10 | 83 | 8.0 | 16.1 | 0.00 | 0.00 | 0.00 | 86 | 1014.7 |
| 20260507062104 | 10 | 64 | 8.0 | 19.3 | 0.00 | 0.00 | 0.00 | 86 | 1014.8 |
| 20260507061604 | 9 | 96 | 8.0 | 24.1 | 0.00 | 0.00 | 0.00 | 87 | 1014.9 |
| 20260507061104 | 9 | 55 | 9.7 | 22.5 | 0.00 | 0.00 | 0.00 | 87 | 1014.7 |
| 20260507060604 | 9 | 20 | 6.4 | 19.3 | 0.00 | 0.00 | 0.00 | 87 | 1014.5 |
| 20260507060104 | 9 | 53 | 9.7 | 24.1 | 0.00 | 0.00 | 0.00 | 87 | 1014.6 |
| 20260507054604 | 9 | 24 | 9.7 | 19.3 | 0.00 | 0.00 | 0.00 | 87 | 1014.7 |
| 20260507054104 | 9 | 13 | 8.0 | 16.1 | 0.00 | 0.00 | 0.00 | 87 | 1014.7 |
| 20260507053604 | 9 | 52 | 9.7 | 16.1 | 0.00 | 0.00 | 0.00 | 88 | 1014.7 |
| 20260507053104 | 9 | 32 | 8.0 | 25.7 | 0.00 | 0.00 | 0.00 | 88 | 1014.6 |
| 20260507052604 | 9 | 24 | 8.0 | 19.3 | 0.00 | 0.00 | 0.00 | 88 | 1014.5 |
| 20260507051604 | 9 | 0 | 9.7 | 22.5 | 0.00 | 0.00 | 0.00 | 88 | 1014.5 |
| 20260507051104 | 9 | 16 | 12.9 | 27.4 | 0.00 | 0.00 | 0.00 | 88 | 1014.6 |
| 20260507050604 | 9 | 46 | 11.3 | 20.9 | 0.00 | 0.00 | 0.00 | 88 | 1014.5 |
| 20260507050103 | 9 | 31 | 9.7 | 20.9 | 0.00 | 0.00 | 0.00 | 88 | 1014.3 |
| 20260507045604 | 9 | 125 | 8.0 | 14.5 | 0.00 | 0.00 | 0.00 | 88 | 1014.4 |
| 20260507045104 | 8 | 129 | 8.0 | 19.3 | 0.00 | 0.00 | 0.00 | 88 | 1014.5 |
| 20260507044604 | 8 | 63 | 8.0 | 16.1 | 0.00 | 0.00 | 0.00 | 88 | 1014.3 |
| 20260507043604 | 8 | 76 | 6.4 | 16.1 | 0.00 | 0.00 | 0.00 | 88 | 1014.3 |
| 20260507043104 | 8 | 149 | 8.0 | 14.5 | 0.00 | 0.00 | 0.00 | 88 | 1014.3 |
| 20260507042104 | 8 | 37 | 4.8 | 14.5 | 0.00 | 0.00 | 0.00 | 88 | 1014.1 |
| 20260507041604 | 8 | 37 | 4.8 | 19.3 | 0.00 | 0.00 | 0.00 | 88 | 1013.9 |
| 20260507041105 | 9 | 113 | 6.4 | 16.1 | 0.00 | 0.00 | 0.00 | 88 | 1014.0 |
| 20260507040604 | 9 | 21 | 4.8 | 20.9 | 0.00 | 0.00 | 0.00 | 88 | 1014.0 |
| 20260507035604 | 9 | 14 | 11.3 | 20.9 | 0.00 | 0.00 | 0.00 | 88 | 1014.0 |
| 20260507035104 | 9 | 51 | 8.0 | 16.1 | 0.00 | 0.00 | 0.00 | 88 | 1014.0 |
| 20260507034603 | 9 | 52 | 4.8 | 14.5 | 0.00 | 0.00 | 0.00 | 88 | 1014.0 |
| 20260507034104 | 9 | 49 | 8.0 | 25.7 | 0.00 | 0.00 | 0.00 | 88 | 1014.0 |
| 20260507033604 | 8 | 49 | 9.7 | 19.3 | 0.00 | 0.00 | 0.00 | 88 | 1014.1 |
| 20260507032604 | 8 | 111 | 4.8 | 16.1 | 0.00 | 0.00 | 0.00 | 88 | 1013.9 |
| 20260507032103 | 8 | 54 | 4.8 | 14.5 | 0.00 | 0.00 | 0.00 | 88 | 1014.1 |
| 20260507031604 | 8 | 58 | 4.8 | 14.5 | 0.00 | 0.00 | 0.00 | 88 | 1014.1 |
| 20260507031104 | 8 | 18 | 8.0 | 14.5 | 0.00 | 0.00 | 0.00 | 88 | 1014.0 |
| 20260507030604 | 8 | 110 | 8.0 | 14.5 | 0.00 | 0.00 | 0.00 | 88 | 1014.0 |
| 20260507030104 | 8 | 112 | 4.8 | 11.3 | 0.00 | 0.00 | 0.00 | 88 | 1013.9 |
| 20260507025603 | 8 | 125 | 4.8 | 11.3 | 0.00 | 0.00 | 0.00 | 88 | 1014.0 |
| 20260507024104 | 8 | 37 | 3.2 | 12.9 | 0.00 | 0.00 | 0.00 | 88 | 1014.0 |
| 20260507023104 | 8 | 103 | 3.2 | 8.0 | 0.00 | 0.00 | 0.00 | 88 | 1013.8 |
| 20260507022604 | 8 | 130 | 4.8 | 14.5 | 0.00 | 0.00 | 0.00 | 88 | 1013.9 |
| 20260507022104 | 8 | 49 | 4.8 | 11.3 | 0.00 | 0.00 | 0.00 | 88 | 1013.9 |
| 20260507021104 | 8 | 52 | 6.4 | 16.1 | 0.00 | 0.00 | 0.00 | 88 | 1013.8 |
| 20260507020604 | 8 | 48 | 4.8 | 11.3 | 0.00 | 0.00 | 0.00 | 88 | 1013.9 |
| 20260507020104 | 9 | 86 | 4.8 | 11.3 | 0.00 | 0.00 | 0.00 | 88 | 1013.7 |
| 20260507015604 | 9 | 105 | 4.8 | 11.3 | 0.00 | 0.00 | 0.00 | 88 | 1013.9 |
| 20260507015104 | 9 | 131 | 4.8 | 11.3 | 0.00 | 0.00 | 0.00 | 88 | 1013.7 |
| 20260507014604 | 9 | 77 | 4.8 | 9.7 | 0.00 | 0.00 | 0.00 | 88 | 1013.7 |
| 20260507014104 | 9 | 59 | 4.8 | 9.7 | 0.00 | 0.00 | 0.00 | 88 | 1013.9 |
| 20260507013603 | 9 | 60 | 4.8 | 9.7 | 0.00 | 0.00 | 0.00 | 87 | 1013.8 |
| 20260507013104 | 9 | 56 | 1.6 | 9.7 | 0.00 | 0.00 | 0.00 | 87 | 1013.9 |
| 20260507012104 | 9 | 117 | 4.8 | 9.7 | 0.00 | 0.00 | 0.00 | 87 | 1013.8 |
| 20260507011604 | 9 | 112 | 3.2 | 11.3 | 0.00 | 0.00 | 0.00 | 87 | 1014.0 |
| 20260507011104 | 9 | 132 | 4.8 | 8.0 | 0.00 | 0.00 | 0.00 | 87 | 1013.9 |
| 20260507010604 | 9 | 132 | 4.8 | 9.7 | 0.00 | 0.00 | 0.00 | 87 | 1014.0 |
| 20260507010104 | 9 | 134 | 6.4 | 9.7 | 0.00 | 0.00 | 0.00 | 87 | 1013.8 |
| 20260507005603 | 9 | 114 | 3.2 | 9.7 | 0.00 | 0.00 | 0.00 | 87 | 1014.0 |
| 20260507005104 | 9 | 68 | 4.8 | 9.7 | 0.00 | 0.00 | 0.00 | 86 | 1013.9 |
| 20260507004604 | 9 | 88 | 3.2 | 9.7 | 0.00 | 0.00 | 0.00 | 86 | 1013.8 |
| 20260507004104 | 9 | 78 | 4.8 | 9.7 | 0.00 | 0.00 | 0.00 | 86 | 1013.8 |
| 20260507003604 | 9 | 128 | 4.8 | 11.3 | 0.00 | 0.00 | 0.00 | 86 | 1013.9 |
| 20260507003104 | 9 | 98 | 3.2 | 9.7 | 0.00 | 0.00 | 0.00 | 86 | 1013.9 |
| 20260507002604 | 9 | 73 | 1.6 | 9.7 | 0.00 | 0.00 | 0.00 | 86 | 1013.9 |
| 20260507002104 | 9 | 73 | 4.8 | 12.9 | 0.00 | 0.00 | 0.00 | 86 | 1013.8 |
| 20260507001604 | 9 | 71 | 3.2 | 14.5 | 0.00 | 0.00 | 0.00 | 86 | 1013.8 |
| 20260507001104 | 9 | 100 | 4.8 | 9.7 | 0.00 | 0.00 | 0.00 | 86 | 1013.8 |
| 20260507000603 | 9 | 125 | 3.2 | 9.7 | 0.00 | 0.00 | 0.00 | 86 | 1013.9 |
| 20260507000104 | 9 | 129 | 3.2 | 9.7 | 0.00 | 0.00 | 0.00 | 86 | 1013.7 |
| 20260506235604 | 9 | 70 | 6.4 | 12.9 | 0.00 | 0.00 | 0.00 | 86 | 1013.8 |
| 20260506235103 | 9 | 65 | 4.8 | 14.5 | 0.00 | 0.00 | 0.00 | 86 | 1013.8 |
| 20260506234604 | 9 | 104 | 4.8 | 14.5 | 0.00 | 0.00 | 0.00 | 86 | 1013.7 |
| 20260506234103 | 9 | 42 | 4.8 | 14.5 | 0.00 | 0.00 | 0.00 | 86 | 1013.9 |
| 20260506233604 | 9 | 100 | 4.8 | 12.9 | 0.00 | 0.00 | 0.00 | 86 | 1013.7 |
| 20260506233104 | 9 | 44 | 4.8 | 14.5 | 0.00 | 0.00 | 0.00 | 86 | 1013.8 |
| 20260506232604 | 10 | 98 | 6.4 | 11.3 | 0.00 | 0.00 | 0.00 | 86 | 1013.9 |
| 20260506232104 | 10 | 59 | 4.8 | 12.9 | 0.00 | 0.00 | 0.00 | 86 | 1013.9 |
| 20260506231604 | 10 | 120 | 4.8 | 12.9 | 0.00 | 0.00 | 0.00 | 86 | 1013.7 |
| 20260506231106 | 10 | 78 | 3.2 | 9.7 | 0.00 | 0.00 | 0.00 | 86 | 1013.7 |
| 20260506230604 | 10 | 104 | 1.6 | 11.3 | 0.00 | 0.00 | 0.00 | 86 | 1013.6 |
| 20260506230104 | 10 | 67 | 3.2 | 11.3 | 0.00 | 0.00 | 0.00 | 86 | 1013.7 |
| 20260506225604 | 10 | 90 | 6.4 | 14.5 | 0.00 | 0.00 | 0.00 | 86 | 1013.6 |
| 20260506225104 | 10 | 82 | 4.8 | 11.3 | 0.00 | 0.00 | 0.00 | 86 | 1013.7 |
| 20260506224604 | 10 | 67 | 4.8 | 9.7 | 0.00 | 0.00 | 0.00 | 86 | 1013.6 |
| 20260506224104 | 10 | 80 | 3.2 | 9.7 | 0.00 | 0.00 | 0.00 | 87 | 1013.7 |
| 20260506223604 | 10 | 82 | 4.8 | 12.9 | 0.00 | 0.00 | 0.00 | 87 | 1013.7 |
| 20260506223104 | 10 | 62 | 4.8 | 12.9 | 0.00 | 0.00 | 0.00 | 86 | 1013.7 |
| 20260506222604 | 10 | 82 | 4.8 | 11.3 | 0.00 | 0.00 | 0.00 | 86 | 1013.6 |
| 20260506222104 | 10 | 77 | 4.8 | 9.7 | 0.00 | 0.00 | 0.00 | 86 | 1013.4 |
| 20260506221104 | 10 | 96 | 3.2 | 12.9 | 0.00 | 0.00 | 0.00 | 86 | 1013.6 |
| 20260506220104 | 10 | 97 | 8.0 | 16.1 | 0.00 | 0.00 | 0.00 | 86 | 1013.5 |
| 20260506215604 | 10 | 92 | 3.2 | 12.9 | 0.00 | 0.00 | 0.00 | 86 | 1013.4 |
| 20260506215104 | 10 | 89 | 6.4 | 14.5 | 0.00 | 0.00 | 0.00 | 86 | 1013.3 |
| 20260506214604 | 10 | 66 | 4.8 | 16.1 | 0.00 | 0.00 | 0.00 | 86 | 1013.3 |
| 20260506214104 | 10 | 115 | 4.8 | 12.9 | 0.00 | 0.00 | 0.00 | 86 | 1013.5 |
| 20260506213604 | 10 | 69 | 6.4 | 12.9 | 0.00 | 0.00 | 0.00 | 86 | 1013.4 |
| 20260506213103 | 10 | 75 | 8.0 | 16.1 | 0.00 | 0.00 | 0.00 | 86 | 1013.4 |
| 20260506212603 | 10 | 56 | 4.8 | 11.3 | 0.00 | 0.00 | 0.00 | 86 | 1013.2 |
| 20260506212104 | 10 | 58 | 8.0 | 14.5 | 0.00 | 0.00 | 0.00 | 86 | 1013.3 |
| 20260506211604 | 10 | 108 | 6.4 | 11.3 | 0.00 | 0.00 | 0.00 | 86 | 1013.5 |
| 20260506211104 | 10 | 84 | 3.2 | 12.9 | 0.00 | 0.00 | 0.00 | 86 | 1013.2 |
| 20260506210604 | 10 | 88 | 4.8 | 9.7 | 0.00 | 0.00 | 0.00 | 85 | 1013.3 |
| 20260506210104 | 10 | 105 | 4.8 | 11.3 | 0.00 | 0.00 | 0.00 | 85 | 1013.4 |
| 20260506205104 | 10 | 131 | 6.4 | 9.7 | 0.00 | 0.00 | 0.00 | 85 | 1013.2 |
| 20260506204104 | 10 | 83 | 4.8 | 11.3 | 0.00 | 0.00 | 0.00 | 85 | 1013.2 |
| 20260506203104 | 10 | 72 | 3.2 | 11.3 | 0.00 | 0.00 | 0.00 | 85 | 1013.1 |
| 20260506202604 | 10 | 80 | 4.8 | 12.9 | 0.00 | 0.00 | 0.00 | 84 | 1013.2 |
| 20260506202104 | 10 | 70 | 4.8 | 12.9 | 0.00 | 0.00 | 0.00 | 84 | 1013.2 |
| 20260506201604 | 10 | 123 | 4.8 | 9.7 | 0.00 | 0.00 | 0.00 | 84 | 1013.1 |
| 20260506201104 | 10 | 71 | 4.8 | 14.5 | 0.00 | 0.00 | 0.00 | 83 | 1013.0 |
| 20260506195604 | 10 | 52 | 4.8 | 16.1 | 0.00 | 0.00 | 0.00 | 83 | 1012.9 |
| 20260506195104 | 10 | 99 | 4.8 | 16.1 | 0.00 | 0.00 | 0.00 | 82 | 1012.9 |
| 20260506194604 | 11 | 77 | 6.4 | 11.3 | 0.00 | 0.00 | 0.00 | 82 | 1012.9 |
| 20260506194104 | 11 | 118 | 3.2 | 11.3 | 0.00 | 0.00 | 0.00 | 82 | 1012.6 |
| 20260506193604 | 11 | 71 | 4.8 | 14.5 | 0.00 | 0.00 | 0.00 | 82 | 1012.9 |
| 20260506193104 | 11 | 51 | 8.0 | 16.1 | 0.00 | 0.00 | 0.00 | 82 | 1012.6 |
| 20260506192603 | 11 | 39 | 4.8 | 14.5 | 0.00 | 0.00 | 0.00 | 81 | 1012.6 |
| 20260506192104 | 11 | 112 | 4.8 | 22.5 | 0.00 | 0.00 | 0.00 | 81 | 1012.6 |
| 20260506191103 | 11 | 79 | 8.0 | 16.1 | 0.00 | 0.00 | 0.00 | 81 | 1012.5 |
| 20260506190603 | 11 | 81 | 4.8 | 11.3 | 0.00 | 0.00 | 0.00 | 80 | 1012.3 |
| 20260506185604 | 11 | 67 | 3.2 | 16.1 | 0.00 | 0.00 | 0.00 | 80 | 1012.4 |
| 20260506185104 | 11 | 34 | 6.4 | 16.1 | 0.00 | 0.00 | 0.00 | 80 | 1012.3 |
| 20260506184604 | 11 | 95 | 8.0 | 14.5 | 0.00 | 0.00 | 0.00 | 80 | 1012.1 |
| 20260506184104 | 11 | 77 | 4.8 | 14.5 | 0.00 | 0.00 | 0.00 | 79 | 1012.1 |
| 20260506183604 | 11 | 101 | 4.8 | 19.3 | 0.00 | 0.00 | 0.00 | 79 | 1012.2 |
| 20260506183104 | 11 | 28 | 8.0 | 20.9 | 0.00 | 0.00 | 0.00 | 79 | 1012.2 |
| 20260506182104 | 11 | 48 | 9.7 | 24.1 | 0.00 | 0.00 | 0.00 | 80 | 1012.0 |
| 20260506181604 | 11 | 43 | 6.4 | 20.9 | 0.00 | 0.00 | 0.00 | 80 | 1011.9 |
| 20260506181104 | 11 | 48 | 8.0 | 22.5 | 0.00 | 0.00 | 0.00 | 80 | 1012.0 |
| 20260506180604 | 11 | 52 | 9.7 | 19.3 | 0.00 | 0.00 | 0.00 | 80 | 1011.8 |
| 20260506180104 | 11 | 50 | 4.8 | 16.1 | 0.00 | 0.00 | 0.00 | 80 | 1011.7 |
| 20260506175604 | 11 | 59 | 6.4 | 20.9 | 0.00 | 0.00 | 0.00 | 80 | 1011.7 |
| 20260506175103 | 11 | 48 | 8.0 | 20.9 | 0.00 | 0.00 | 0.00 | 80 | 1011.8 |
| 20260506174604 | 11 | 46 | 9.7 | 24.1 | 0.00 | 0.00 | 0.00 | 80 | 1011.8 |
| 20260506174104 | 11 | 36 | 11.3 | 25.7 | 0.00 | 0.00 | 0.00 | 81 | 1011.9 |
| 20260506173604 | 11 | 34 | 6.4 | 22.5 | 0.00 | 0.00 | 0.00 | 81 | 1011.7 |
| 20260506173103 | 11 | 63 | 6.4 | 20.9 | 0.00 | 0.00 | 0.00 | 82 | 1011.6 |
| 20260506172603 | 11 | 43 | 8.0 | 25.7 | 0.00 | 0.00 | 0.00 | 81 | 1011.5 |
| 20260506171604 | 11 | 31 | 8.0 | 20.9 | 0.00 | 0.00 | 0.00 | 81 | 1011.6 |
| 20260506171104 | 11 | 50 | 8.0 | 24.1 | 0.00 | 0.00 | 0.00 | 81 | 1011.8 |
| 20260506170103 | 11 | 30 | 9.7 | 22.5 | 0.00 | 0.00 | 0.00 | 81 | 1011.6 |
| 20260506165603 | 11 | 37 | 8.0 | 22.5 | 0.00 | 0.00 | 0.00 | 81 | 1011.5 |
| 20260506165103 | 11 | 35 | 9.7 | 22.5 | 0.00 | 0.00 | 0.00 | 81 | 1011.6 |
| 20260506164103 | 11 | 71 | 4.8 | 19.3 | 0.00 | 0.00 | 0.00 | 81 | 1011.4 |
| 20260506162605 | 11 | 125 | 4.8 | 16.1 | 0.00 | 0.00 | 0.00 | 81 | 1011.6 |
| 20260506162104 | 11 | 101 | 6.4 | 20.9 | 0.00 | 0.00 | 0.00 | 80 | 1011.6 |
| 20260506161605 | 11 | 63 | 6.4 | 27.4 | 0.00 | 0.00 | 0.00 | 80 | 1011.7 |
| 20260506161105 | 11 | 119 | 8.0 | 22.5 | 0.00 | 0.00 | 0.00 | 79 | 1011.6 |
| 20260506160604 | 11 | 38 | 12.9 | 29.0 | 0.00 | 0.00 | 0.00 | 78 | 1011.5 |
| 20260506160105 | 11 | 55 | 6.4 | 19.3 | 0.00 | 0.00 | 0.00 | 78 | 1011.5 |
| 20260506155605 | 11 | 55 | 11.3 | 27.4 | 0.00 | 0.00 | 0.00 | 78 | 1011.5 |
| 20260506155105 | 12 | 19 | 8.0 | 24.1 | 0.00 | 0.00 | 0.00 | 79 | 1011.6 |
| 20260506154105 | 12 | 93 | 11.3 | 32.2 | 0.00 | 0.00 | 0.00 | 78 | 1011.5 |
| 20260506153605 | 12 | 64 | 9.7 | 25.7 | 0.00 | 0.00 | 0.00 | 77 | 1011.5 |
| 20260506152105 | 12 | 46 | 9.7 | 22.5 | 0.00 | 0.00 | 0.00 | 73 | 1011.3 |
| 20260506151605 | 12 | 60 | 9.7 | 22.5 | 0.00 | 0.00 | 0.00 | 72 | 1011.3 |
| 20260506151105 | 13 | 78 | 8.0 | 19.3 | 0.00 | 0.00 | 0.00 | 72 | 1011.2 |
| 20260506150605 | 12 | 124 | 9.7 | 20.9 | 0.00 | 0.00 | 0.00 | 72 | 1011.3 |
| 20260506150104 | 13 | 80 | 9.7 | 22.5 | 0.00 | 0.00 | 0.00 | 71 | 1011.3 |
| 20260506145604 | 12 | 23 | 11.3 | 38.6 | 0.00 | 0.00 | 0.00 | 70 | 1011.2 |
| 20260506145105 | 13 | 62 | 6.4 | 25.7 | 0.00 | 0.00 | 0.00 | 71 | 1011.2 |
| 20260506144605 | 13 | 36 | 9.7 | 25.7 | 0.00 | 0.00 | 0.00 | 71 | 1011.1 |
| 20260506144105 | 13 | 25 | 14.5 | 33.8 | 0.00 | 0.00 | 0.00 | 70 | 1011.1 |
| 20260506143605 | 13 | 65 | 9.7 | 27.4 | 0.00 | 0.00 | 0.00 | 71 | 1011.0 |
| 20260506143105 | 13 | 55 | 9.7 | 24.1 | 0.00 | 0.00 | 0.00 | 70 | 1011.0 |
| 20260506142605 | 13 | 61 | 8.0 | 20.9 | 0.00 | 0.00 | 0.00 | 68 | 1011.1 |
| 20260506142104 | 13 | 49 | 16.1 | 29.0 | 0.00 | 0.00 | 0.00 | 67 | 1011.1 |
| 20260506141605 | 13 | 20 | 9.7 | 25.7 | 0.00 | 0.00 | 0.00 | 67 | 1011.2 |
| 20260506141105 | 13 | 47 | 11.3 | 35.4 | 0.00 | 0.00 | 0.00 | 68 | 1011.1 |
| 20260506140604 | 13 | 61 | 11.3 | 29.0 | 0.00 | 0.00 | 0.00 | 68 | 1011.0 |
| 20260506140105 | 13 | 45 | 9.7 | 38.6 | 0.00 | 0.00 | 0.00 | 68 | 1011.0 |
| 20260506135604 | 13 | 83 | 6.4 | 19.3 | 0.00 | 0.00 | 0.00 | 67 | 1011.2 |
| 20260506134604 | 13 | 119 | 8.0 | 19.3 | 0.00 | 0.00 | 0.00 | 67 | 1011.2 |
| 20260506133604 | 13 | 74 | 12.9 | 19.3 | 0.00 | 0.00 | 0.00 | 69 | 1011.3 |
| 20260506132606 | 13 | 115 | 11.3 | 22.5 | 0.00 | 0.00 | 0.00 | 69 | 1011.3 |
| 20260506132105 | 12 | 53 | 9.7 | 20.9 | 0.00 | 0.00 | 0.00 | 69 | 1011.3 |
| 20260506131605 | 12 | 35 | 9.7 | 24.1 | 0.00 | 0.00 | 0.00 | 69 | 1011.1 |
| 20260506131105 | 12 | 62 | 8.0 | 27.4 | 0.00 | 0.00 | 0.00 | 71 | 1011.0 |
| 20260506130105 | 12 | 33 | 11.3 | 37.0 | 0.00 | 0.00 | 0.00 | 72 | 1011.1 |
| 20260506125605 | 12 | 49 | 11.3 | 37.0 | 0.00 | 0.00 | 0.00 | 73 | 1011.3 |
| 20260506124105 | 12 | 36 | 16.1 | 38.6 | 0.00 | 0.00 | 0.00 | 73 | 1011.3 |
| 20260506123604 | 12 | 52 | 14.5 | 38.6 | 0.00 | 0.00 | 0.00 | 73 | 1011.0 |
| 20260506123105 | 12 | 44 | 16.1 | 40.2 | 0.00 | 0.00 | 0.00 | 73 | 1011.1 |
| 20260506122605 | 12 | 48 | 12.9 | 37.0 | 0.00 | 0.00 | 0.00 | 73 | 1011.0 |
| 20260506122105 | 12 | 41 | 19.3 | 46.7 | 0.00 | 0.00 | 0.00 | 73 | 1011.2 |
| 20260506121604 | 12 | 31 | 12.9 | 49.9 | 0.00 | 0.00 | 0.00 | 73 | 1011.2 |
| 20260506120605 | 12 | 68 | 16.1 | 53.1 | 0.00 | 0.00 | 0.00 | 73 | 1011.1 |
| 20260506120105 | 12 | 25 | 14.5 | 38.6 | 0.00 | 0.00 | 0.00 | 73 | 1011.0 |
| 20260506115104 | 12 | 49 | 12.9 | 45.1 | 0.00 | 0.00 | 0.00 | 72 | 1011.0 |
| 20260506114605 | 12 | 26 | 16.1 | 41.8 | 0.00 | 0.00 | 0.00 | 71 | 1011.1 |
| 20260506114105 | 12 | 55 | 11.3 | 37.0 | 0.00 | 0.00 | 0.00 | 71 | 1011.0 |
| 20260506113605 | 12 | 38 | 12.9 | 27.4 | 0.00 | 0.00 | 0.00 | 70 | 1011.1 |
| 20260506113105 | 12 | 25 | 11.3 | 24.1 | 0.00 | 0.00 | 0.00 | 69 | 1011.0 |
| 20260506112604 | 12 | 22 | 11.3 | 40.2 | 0.00 | 0.00 | 0.00 | 69 | 1010.8 |
| 20260506112106 | 12 | 54 | 16.1 | 45.1 | 0.00 | 0.00 | 0.00 | 70 | 1010.8 |
| 20260506111605 | 12 | 54 | 9.7 | 37.0 | 0.00 | 0.00 | 0.00 | 68 | 1010.9 |
| 20260506111105 | 12 | 22 | 14.5 | 40.2 | 0.00 | 0.00 | 0.00 | 68 | 1011.0 |
| 20260506110105 | 12 | 48 | 17.7 | 37.0 | 0.00 | 0.00 | 0.00 | 69 | 1011.0 |
| 20260506105604 | 12 | 52 | 11.3 | 45.1 | 0.00 | 0.00 | 0.00 | 70 | 1010.8 |
| 20260506105105 | 12 | 31 | 11.3 | 35.4 | 0.00 | 0.00 | 0.00 | 72 | 1010.9 |
| 20260506104605 | 12 | 8 | 11.3 | 41.8 | 0.00 | 0.00 | 0.00 | 72 | 1010.9 |
| 20260506104105 | 12 | 25 | 12.9 | 35.4 | 0.00 | 0.00 | 0.00 | 72 | 1010.8 |
| 20260506103605 | 12 | 19 | 11.3 | 29.0 | 0.00 | 0.00 | 0.00 | 71 | 1010.9 |
| 20260506102604 | 12 | 49 | 11.3 | 40.2 | 0.00 | 0.00 | 0.00 | 70 | 1011.0 |
| 20260506102105 | 12 | 35 | 16.1 | 32.2 | 0.00 | 0.00 | 0.00 | 70 | 1010.9 |
| 20260506101605 | 12 | 35 | 11.3 | 29.0 | 0.00 | 0.00 | 0.00 | 72 | 1011.0 |
| 20260506101105 | 12 | 44 | 9.7 | 35.4 | 0.00 | 0.00 | 0.00 | 70 | 1011.2 |
| 20260506100605 | 12 | 57 | 11.3 | 38.6 | 0.00 | 0.00 | 0.00 | 72 | 1011.0 |
| 20260506100106 | 11 | 53 | 16.1 | 38.6 | 0.00 | 0.00 | 0.00 | 73 | 1011.1 |
| 20260506095604 | 11 | 50 | 12.9 | 40.2 | 0.00 | 0.00 | 0.00 | 73 | 1010.8 |
| 20260506095105 | 11 | 30 | 17.7 | 41.8 | 0.00 | 0.00 | 0.00 | 73 | 1011.0 |
| 20260506094605 | 11 | 41 | 14.5 | 45.1 | 0.00 | 0.00 | 0.00 | 72 | 1010.9 |
| 20260506094104 | 11 | 51 | 12.9 | 32.2 | 0.00 | 0.00 | 0.00 | 72 | 1010.9 |
| 20260506093105 | 12 | 21 | 14.5 | 38.6 | 0.00 | 0.00 | 0.00 | 70 | 1010.9 |
| 20260506092605 | 11 | 39 | 14.5 | 37.0 | 0.00 | 0.00 | 0.00 | 71 | 1011.0 |
| 20260506092104 | 11 | 38 | 9.7 | 35.4 | 0.00 | 0.00 | 0.00 | 72 | 1011.1 |
| 20260506091604 | 12 | 45 | 17.7 | 38.6 | 0.00 | 0.00 | 0.00 | 70 | 1010.9 |
| 20260506090604 | 12 | 33 | 14.5 | 40.2 | 0.00 | 0.00 | 0.00 | 70 | 1010.8 |
| 20260506090104 | 11 | 42 | 12.9 | 41.8 | 0.00 | 0.00 | 0.00 | 71 | 1010.5 |
| 20260506085604 | 11 | 39 | 20.9 | 41.8 | 0.00 | 0.00 | 0.00 | 71 | 1010.7 |
| 20260506085105 | 11 | 14 | 16.1 | 48.3 | 0.00 | 0.00 | 0.00 | 72 | 1010.7 |
| 20260506084605 | 11 | 22 | 17.7 | 41.8 | 0.00 | 0.00 | 0.00 | 73 | 1010.6 |
| 20260506084105 | 11 | 27 | 19.3 | 49.9 | 0.00 | 0.00 | 0.00 | 73 | 1010.6 |
| 20260506083604 | 11 | 31 | 19.3 | 45.1 | 0.00 | 0.00 | 0.00 | 73 | 1010.9 |
| 20260506083104 | 11 | 22 | 19.3 | 35.4 | 0.00 | 0.00 | 0.00 | 74 | 1010.8 |
| 20260506082604 | 11 | 19 | 11.3 | 40.2 | 0.00 | 0.00 | 0.00 | 75 | 1010.7 |
| 20260506082105 | 11 | 49 | 12.9 | 33.8 | 0.00 | 0.00 | 0.00 | 76 | 1010.8 |
| 20260506081604 | 11 | 89 | 14.5 | 37.0 | 0.00 | 0.00 | 0.00 | 76 | 1010.7 |
| 20260506080604 | 11 | 48 | 14.5 | 33.8 | 0.00 | 0.00 | 0.00 | 76 | 1010.6 |
| 20260506080104 | 11 | 42 | 16.1 | 35.4 | 0.00 | 0.00 | 0.00 | 76 | 1010.6 |